Location: Seattle
(47.6064°N, 122.3308°W)
Time: 22:12:01
(UTC-07:00)

ITUPSAT 1 - Pass Details

Date: 11 April 2023
Orbit: 697 x 710 km, 98.5° (Epoch: 29 May)

Event Time Altitude Azimuth Distance (km) Brightness Sun altitude
Rises 21:48:54 0° 20° (NNE) 3,115 ? -18.4°
Reaches altitude 10° 21:51:19 10° 29° (NNE) 2,189 ? -18.7°
Maximum altitude 21:55:48 39° 98° (E) 1,057 ? -19.3°
Enters shadow 21:56:05 39° 107° (ESE) 1,064 ? -19.3°
